Regional Weather Roundup
Issued by NWS Columbia, SC

Home | Current Version | Previous Version | Text Only | Print | Product List | Glossary On
Versions: 1 2 3 4 5 6 7 8 9 10 11 12 13 14 15 16 17 18 19 20 21 22 23 24 25 26 27 28 29 30 31 32 33 34 35 36 37 38 39 40 41 42 43 44 45 46 47 48 49 50
000
ASUS42 KCAE 030110
RWRCAE
REGIONAL WEATHER ROUNDUP
NATIONAL WEATHER SERVICE COLUMBIA SC
900 PM EDT WED SEP 02 2015

NOTE: "FAIR" INDICATES FEW OR NO CLOUDS BELOW 12,000 FEET WITH NO
SIGNIFICANT WEATHER AND/OR OBSTRUCTIONS TO VISIBILITY.

NOT ALL STATIONS ARE QUALITY CONTROLLED BY THE NATIONAL
WEATHER SERVICE. USE DATA WITH CAUTION...ESPECIALLY
DEWPOINT OBSERVATIONS.

SCZ001>056-GAZ040-063>065-077-030200-
...UPSTATE SOUTH CAROLINA...

CITY           SKY/WX    TMP DP  RH WIND       PRES   REMARKS
ANDERSON       MOCLDY    78  71  79 CALM      30.01R
LIBERTY        MOCLDY    76  72  88 CALM      30.01S
SPARTANBURG    CLOUDY    81  68  65 W3        30.00S
CLEMSON        MOCLDY    83  69  62 CALM      30.02S
GREENVILLE     CLOUDY    83  66  56 W3        30.02S
GREENWOOD      CLOUDY    78  72  81 CALM      30.01S
GREER          MOCLDY    80  69  69 W5        30.00S
ROCK HILL      PTCLDY    78  68  71 SW6       29.99R
CHESTER        PTCLDY    81  66  61 CALM      30.00R
LAURENS        MOCLDY    81  75  83 CALM      30.00R


...CENTRAL SOUTH CAROLINA...

CITY           SKY/WX    TMP DP  RH WIND       PRES   REMARKS
COLUMBIA APT   PTCLDY    84  72  67 W3        29.96R
COLUMBIA OWENS MOCLDY    84  71  65 CALM      29.97R
FLORENCE       PTCLDY    81  73  76 SW5       29.96R
ORANGEBURG     CLEAR     79  72  79 SW7       29.99R
NEWBERRY       MOCLDY    77  70  78 W3        30.02R
AIKEN          FAIR      79  68  69 S6        30.03R
BARNWELL       FAIR      81  75  83 S5        30.00S
MANNING        FAIR      81  72  74 S3        29.97S
CAMDEN         FAIR      82  72  69 CALM      29.97S
LANCASTER      PTCLDY    82  70  65 CALM      29.98S
WINNSBORO      MOCLDY    79  70  73 W3        29.98S


...EASTERN AND COASTAL SOUTH CAROLINA...

CITY           SKY/WX    TMP DP  RH WIND       PRES   REMARKS
MYRTLE BEACH   CLEAR     82  72  69 SW7       29.98S
N MYRTLE BCH   PTCLDY    81  73  76 SW10      29.96S
CONWAY         FAIR      79  73  83 S3        29.97R
MARION         FAIR      79  72  78 CALM      29.96R
HARTSVILLE     FAIR      77  70  78 CALM      29.96S
FLORENCE       PTCLDY    81  73  76 SW5       29.96R
CHARLESTON APT PTCLDY    80  75  84 SW5       29.99R
MOUNT PLEASANT LGT RAIN  81  77  89 CALM      29.99R
WALTERBORO     CLEAR     79  73  83 CALM      30.00R
BEAUFORT       MOCLDY    78  75  90 S3        30.00R
HILTON HEAD    CLOUDY    75  75 100 CALM      30.01R


...EASTERN GEORGIA...

CITY           SKY/WX    TMP DP  RH WIND       PRES   REMARKS
AUGUSTA BUSH F PTCLDY    80  73  79 S5        29.98R
AUGUSTA DANIEL PTCLDY    83  71  67 S7        30.00R
THOMSON        MOCLDY    79  77  93 CALM      30.04R
WASHINGTON     FAIR      81  79  94 CALM      30.01R
STATESBORO     PTCLDY    76  76 100 CALM      30.00S
SAVANNAH       CLOUDY    77  74  90 CALM      30.00R


...SOUTHERN NORTH CAROLINA...

CITY           SKY/WX    TMP DP  RH WIND       PRES   REMARKS
CHARLOTTE      MOCLDY    86  65  49 SW7       29.99R
MONROE         CLEAR     80  69  69 CALM      29.98R
WADESBORO      PTCLDY    82  70  68 S3        29.96R
ROCKINGHAM     PTCLDY    82  71  69 CALM      29.97R
RUTHERFORDTON  CLOUDY    82  67  60 CALM      30.02R
ASHEVILLE      PTCLDY    76  68  76 E3        30.09R

$$


USA.gov is the U.S. government's official web portal to all federal, state and local government web resources and services.